Location: Bremen
(53.0793°N, 8.8017°E)
Time: 09:12:32
(UTC+01:00)

Transit 2A - Pass Details

Date: 02 December 2021
Orbit: 591 x 966 km, 66.7° (Epoch: 26 January)

Event Time Altitude Azimuth Distance (km) Brightness Sun altitude
Exits shadow 06:04:28 17° 330° (NNW) 2,222 8.0 -18.8°
Maximum altitude 06:07:44 25° 10° (N) 1,853 7.9 -18.4°
Drops below altitude 10° 06:12:53 10° 64° (ENE) 2,712 9.6 -17.6°
Sets 06:15:58 0° 78° (ENE) 3,644 10.7 -17.2°
